ROT4MND LRTM-LROP

Flight info

Callsign ROT4MND
Flight time N/A
Altitude 19000
Route IRLOX DCT BIVBU DCT TOSVI
Aircraft AT76/M-SDFGIRY/S

Departure

Time 2026-05-07 19:26
Airport Târgu Mureş Transilvania International Airport (LRTM)

Arrival

Time N/A
Airport Bucharest Henri Coandă International Airport (LROP)
Time Latitude Longitude Altitude Speed Heading
2026-05-07 19:04 46.46806 24.42356 969 ft 0 kts 346°
2026-05-07 19:19 46.46808 24.42355 969 ft 2 kts 346°
2026-05-07 19:19 46.46830 24.42346 966 ft 4 kts 331°
2026-05-07 19:20 46.46836 24.42312 968 ft 4 kts 267°
2026-05-07 19:20 46.46853 24.42276 969 ft 5 kts 333°
2026-05-07 19:20 46.46898 24.42256 966 ft 8 kts 351°
2026-05-07 19:20 46.46954 24.42230 966 ft 10 kts 306°
2026-05-07 19:21 46.46950 24.42137 965 ft 10 kts 249°
2026-05-07 19:21 46.46931 24.42045 966 ft 10 kts 255°
2026-05-07 19:21 46.46913 24.41951 968 ft 10 kts 255°
2026-05-07 19:21 46.46895 24.41853 968 ft 11 kts 255°
2026-05-07 19:22 46.46875 24.41739 966 ft 12 kts 256°
2026-05-07 19:22 46.46849 24.41627 968 ft 12 kts 246°
2026-05-07 19:22 46.46824 24.41540 969 ft 10 kts 258°
2026-05-07 19:22 46.46786 24.41314 967 ft 31 kts 255°
2026-05-07 19:23 46.46734 24.41041 963 ft 24 kts 254°
2026-05-07 19:23 46.46696 24.40844 968 ft 18 kts 254°
2026-05-07 19:23 46.46661 24.40672 965 ft 17 kts 253°
2026-05-07 19:23 46.46630 24.40512 966 ft 15 kts 254°
2026-05-07 19:24 46.46603 24.40371 967 ft 14 kts 255°
2026-05-07 19:24 46.46577 24.40239 967 ft 12 kts 253°
2026-05-07 19:24 46.46555 24.40141 975 ft 8 kts 238°
2026-05-07 19:24 46.46525 24.40091 972 ft 2 kts 262°
2026-05-07 19:25 46.46528 24.40087 975 ft 0 kts 306°
2026-05-07 19:25 46.46539 24.40087 977 ft 4 kts
2026-05-07 19:25 46.46556 24.40129 974 ft 4 kts 76°
2026-05-07 19:25 46.46556 24.40131 974 ft 0 kts 76°
2026-05-07 19:26 46.46589 24.40301 967 ft 48 kts 74°
2026-05-07 19:26 46.46744 24.41089 966 ft 112 kts 74°
2026-05-07 19:26 46.46998 24.42326 1210 ft 136 kts 73°
2026-05-07 19:26 46.47280 24.43642 1733 ft 139 kts 73°
2026-05-07 19:27 46.47597 24.44988 2314 ft 143 kts 69°
2026-05-07 19:27 46.47931 24.46336 2670 ft 148 kts 72°
2026-05-07 19:27 46.48237 24.47820 2925 ft 158 kts 73°
2026-05-07 19:27 46.48542 24.49419 3095 ft 176 kts 75°
2026-05-07 19:28 46.48873 24.51231 3208 ft 192 kts 75°
2026-05-07 19:28 46.49200 24.53087 3648 ft 189 kts 76°
2026-05-07 19:28 46.49531 24.54950 4017 ft 191 kts 76°
2026-05-07 19:28 46.49874 24.56816 4411 ft 191 kts 77°
2026-05-07 19:29 46.50210 24.58685 4782 ft 192 kts 77°
2026-05-07 19:29 46.50548 24.60561 5134 ft 192 kts 78°
2026-05-07 19:29 46.50886 24.62443 5390 ft 193 kts 78°
2026-05-07 19:29 46.51199 24.64336 5623 ft 191 kts 88°
2026-05-07 19:30 46.50838 24.66099 5827 ft 183 kts 135°
2026-05-07 19:30 46.49754 24.66854 6077 ft 174 kts 182°
2026-05-07 19:30 46.48677 24.66172 6344 ft 173 kts 222°
2026-05-07 19:30 46.47810 24.64949 6569 ft 175 kts 224°
2026-05-07 19:31 46.47800 24.64934 6571 ft 175 kts 224°
2026-05-07 19:31 46.47422 24.64361 6681 ft 175 kts 224°
2026-05-07 19:31 46.46555 24.63120 6928 ft 175 kts 220°
2026-05-07 19:32 46.45628 24.61978 7169 ft 175 kts 216°
2026-05-07 19:32 46.44638 24.60957 7406 ft 175 kts 212°
2026-05-07 19:32 46.43597 24.60057 7633 ft 175 kts 208°
2026-05-07 19:32 46.42515 24.59247 7867 ft 175 kts 206°
2026-05-07 19:33 46.41416 24.58489 8086 ft 175 kts 205°
2026-05-07 19:33 46.40312 24.57736 8336 ft 175 kts 205°
2026-05-07 19:33 46.39225 24.56985 8562 ft 176 kts 206°
2026-05-07 19:33 46.38122 24.56220 8781 ft 176 kts 206°
2026-05-07 19:34 46.37001 24.55441 8996 ft 177 kts 206°
2026-05-07 19:34 46.35905 24.54683 9221 ft 177 kts 206°
2026-05-07 19:34 46.34795 24.53907 9458 ft 177 kts 206°
2026-05-07 19:34 46.33682 24.53132 9676 ft 178 kts 206°
2026-05-07 19:35 46.32565 24.52356 9885 ft 178 kts 206°
2026-05-07 19:35 46.31450 24.51580 10107 ft 178 kts 206°
2026-05-07 19:35 46.30333 24.50803 10303 ft 178 kts 206°
2026-05-07 19:35 46.29213 24.50028 10483 ft 179 kts 206°
2026-05-07 19:36 46.28087 24.49247 10667 ft 180 kts 206°
2026-05-07 19:36 46.26952 24.48463 10844 ft 181 kts 206°
2026-05-07 19:36 46.25812 24.47671 11046 ft 182 kts 206°
2026-05-07 19:36 46.24691 24.46898 11252 ft 182 kts 206°
2026-05-07 19:37 46.23549 24.46105 11434 ft 182 kts 206°
2026-05-07 19:37 46.22401 24.45313 11608 ft 183 kts 206°
2026-05-07 19:37 46.21251 24.44521 11799 ft 184 kts 206°
2026-05-07 19:37 46.20096 24.43719 11961 ft 185 kts 206°
2026-05-07 19:38 46.18936 24.42917 12158 ft 185 kts 206°
2026-05-07 19:38 46.17775 24.42115 12330 ft 185 kts 206°
2026-05-07 19:38 46.16610 24.41311 12501 ft 186 kts 205°
2026-05-07 19:38 46.15440 24.40503 12672 ft 187 kts 205°
2026-05-07 19:39 46.14265 24.39695 12839 ft 187 kts 205°
2026-05-07 19:39 46.13087 24.38884 13007 ft 188 kts 206°
2026-05-07 19:39 46.11906 24.38069 13166 ft 189 kts 205°
2026-05-07 19:39 46.10718 24.37249 13310 ft 190 kts 205°
2026-05-07 19:40 46.09528 24.36431 13486 ft 190 kts 205°
2026-05-07 19:40 46.08341 24.35615 13645 ft 190 kts 205°
2026-05-07 19:40 46.07146 24.34792 13794 ft 190 kts 205°
2026-05-07 19:40 46.05947 24.33968 13939 ft 191 kts 205°
2026-05-07 19:41 46.04746 24.33144 14056 ft 192 kts 205°
2026-05-07 19:41 46.03541 24.32319 14170 ft 192 kts 205°
2026-05-07 19:41 46.02332 24.31497 14300 ft 192 kts 206°
2026-05-07 19:41 46.01124 24.30665 14424 ft 193 kts 206°
2026-05-07 19:42 45.99908 24.29829 14519 ft 195 kts 206°
2026-05-07 19:42 45.98683 24.28995 14635 ft 196 kts 206°
2026-05-07 19:42 45.97449 24.28149 14750 ft 196 kts 206°
2026-05-07 19:42 45.96217 24.27305 14871 ft 196 kts 206°
2026-05-07 19:43 45.94984 24.26459 14995 ft 197 kts 207°
2026-05-07 19:43 45.93762 24.25621 15112 ft 197 kts 206°
2026-05-07 19:43 45.92502 24.24761 15229 ft 198 kts 206°
2026-05-07 19:43 45.91274 24.23922 15337 ft 198 kts 206°
2026-05-07 19:44 45.90026 24.23072 15439 ft 199 kts 206°
2026-05-07 19:44 45.88777 24.22219 15547 ft 199 kts 206°
2026-05-07 19:44 45.87524 24.21363 15642 ft 200 kts 206°
2026-05-07 19:44 45.86268 24.20509 15742 ft 200 kts 206°
2026-05-07 19:45 45.85007 24.19651 15839 ft 201 kts 206°
2026-05-07 19:45 45.83744 24.18790 15933 ft 201 kts 206°
2026-05-07 19:45 45.82483 24.17930 16017 ft 201 kts 206°
2026-05-07 19:45 45.81214 24.17068 16100 ft 202 kts 207°
2026-05-07 19:46 45.79937 24.16216 16185 ft 203 kts 206°
2026-05-07 19:46 45.78654 24.15381 16258 ft 202 kts 202°
2026-05-07 19:46 45.77247 24.15245 16279 ft 207 kts 175°
2026-05-07 19:46 45.75818 24.15613 16325 ft 210 kts 173°
2026-05-07 19:47 45.74386 24.16020 16394 ft 210 kts 173°
2026-05-07 19:47 45.72954 24.16413 16478 ft 210 kts 173°
2026-05-07 19:47 45.71510 24.16761 16549 ft 210 kts 175°
2026-05-07 19:47 45.70065 24.17070 16643 ft 210 kts 175°
2026-05-07 19:48 45.68633 24.17372 16727 ft 210 kts 175°
2026-05-07 19:48 45.68240 24.17454 16752 ft 210 kts 175°
2026-05-07 19:48 45.67094 24.17693 16826 ft 209 kts 175°
2026-05-07 19:48 45.65652 24.17998 16898 ft 210 kts 175°
2026-05-07 19:49 45.64206 24.18304 16949 ft 210 kts 175°
2026-05-07 19:49 45.62761 24.18598 17018 ft 210 kts 175°
2026-05-07 19:49 45.61315 24.18902 17083 ft 210 kts 175°
2026-05-07 19:49 45.59869 24.19207 17166 ft 210 kts 175°
2026-05-07 19:50 45.58412 24.19512 17195 ft 213 kts 176°
2026-05-07 19:50 45.56979 24.19813 17472 ft 203 kts 175°
2026-05-07 19:50 45.55615 24.20093 17721 ft 195 kts 176°
2026-05-07 19:50 45.54279 24.20376 17920 ft 193 kts 176°
2026-05-07 19:51 45.52944 24.20648 18081 ft 195 kts 176°
2026-05-07 19:51 45.51599 24.20931 18271 ft 196 kts 175°
2026-05-07 19:51 45.50240 24.21212 18431 ft 199 kts 176°
2026-05-07 19:51 45.48870 24.21476 18584 ft 199 kts 176°
2026-05-07 19:52 45.47478 24.21743 18710 ft 204 kts 176°
2026-05-07 19:52 45.46062 24.22016 18861 ft 208 kts 176°
2026-05-07 19:52 45.44611 24.22308 18936 ft 214 kts 176°
2026-05-07 19:52 45.43114 24.22613 18982 ft 221 kts 175°
2026-05-07 19:53 45.41567 24.22933 19012 ft 228 kts 175°
2026-05-07 19:53 45.39976 24.23263 19015 ft 235 kts 175°
2026-05-07 19:53 45.38343 24.23603 19023 ft 240 kts 175°
2026-05-07 19:53 45.36677 24.23953 19024 ft 244 kts 175°
2026-05-07 19:54 45.35563 24.24187 19024 ft 246 kts 176°
2026-05-07 19:54 45.33858 24.24534 19024 ft 249 kts 176°
2026-05-07 19:54 45.32130 24.24890 19010 ft 251 kts 176°
2026-05-07 19:54 45.30398 24.25248 19019 ft 251 kts 175°
2026-05-07 19:55 45.28664 24.25606 19023 ft 253 kts 175°
2026-05-07 19:55 45.26915 24.25969 19020 ft 254 kts 175°
2026-05-07 19:55 45.25169 24.26332 19026 ft 254 kts 175°
2026-05-07 19:55 45.23423 24.26691 19029 ft 255 kts 175°
2026-05-07 19:56 45.21664 24.27053 19022 ft 256 kts 175°
2026-05-07 19:56 45.19904 24.27420 19021 ft 255 kts 175°
2026-05-07 19:56 45.18151 24.27780 19024 ft 255 kts 175°
2026-05-07 19:56 45.16388 24.28140 19055 ft 254 kts 175°
2026-05-07 19:57 45.14636 24.28501 19059 ft 254 kts 175°
2026-05-07 19:57 45.12884 24.28860 19066 ft 255 kts 175°
2026-05-07 19:57 45.11126 24.29222 19064 ft 255 kts 175°
2026-05-07 19:57 45.09368 24.29582 19070 ft 256 kts 175°
2026-05-07 19:58 45.07605 24.29945 19067 ft 256 kts 175°
2026-05-07 19:58 45.05843 24.30307 19063 ft 256 kts 175°
2026-05-07 19:58 45.04080 24.30666 19063 ft 256 kts 175°
2026-05-07 19:58 45.02316 24.31029 19064 ft 256 kts 175°
2026-05-07 19:59 45.00551 24.31390 19065 ft 256 kts 175°
2026-05-07 19:59 44.98787 24.31750 19065 ft 257 kts 175°
2026-05-07 19:59 44.97017 24.32115 19063 ft 257 kts 175°
2026-05-07 19:59 44.95248 24.32475 19061 ft 257 kts 175°
2026-05-07 20:00 44.93523 24.33116 19060 ft 261 kts 154°
2026-05-07 20:00 44.92198 24.34885 19057 ft 268 kts 128°
2026-05-07 20:00 44.91383 24.37262 19062 ft 273 kts 109°
2026-05-07 20:00 44.91158 24.39924 19063 ft 276 kts 89°
2026-05-07 20:01 44.91319 24.42596 19066 ft 270 kts 97°
2026-05-07 20:01 44.90801 24.45098 19067 ft 266 kts 115°
2026-05-07 20:01 44.90079 24.47511 19064 ft 268 kts 115°
2026-05-07 20:01 44.89410 24.49975 19060 ft 270 kts 112°
2026-05-07 20:02 44.88843 24.52508 19062 ft 272 kts 109°
2026-05-07 20:02 44.88324 24.55110 18786 ft 283 kts 108°
2026-05-07 20:02 44.87768 24.57835 18477 ft 294 kts 109°
2026-05-07 20:02 44.87188 24.60595 18155 ft 301 kts 109°
2026-05-07 20:03 44.86585 24.63455 17805 ft 307 kts 109°
2026-05-07 20:03 44.85974 24.66359 17460 ft 311 kts 109°
2026-05-07 20:03 44.85353 24.69293 17128 ft 312 kts 109°
2026-05-07 20:03 44.84745 24.72184 16782 ft 304 kts 109°
2026-05-07 20:04 44.84149 24.75008 16453 ft 298 kts 109°
2026-05-07 20:04 44.83558 24.77777 16124 ft 291 kts 111°
2026-05-07 20:04 44.82569 24.80144 15797 ft 277 kts 139°
2026-05-07 20:04 44.80938 24.81415 15474 ft 266 kts 170°
2026-05-07 20:05 44.79133 24.81671 15154 ft 259 kts 173°
2026-05-07 20:05 44.77383 24.82262 14839 ft 259 kts 168°
2026-05-07 20:05 44.75635 24.82969 14533 ft 265 kts 167°
2026-05-07 20:05 44.73843 24.83713 14224 ft 272 kts 167°
2026-05-07 20:06 44.72091 24.84762 13914 ft 280 kts 147°
2026-05-07 20:06 44.70647 24.86616 13581 ft 283 kts 139°
2026-05-07 20:06 44.69264 24.88611 13243 ft 288 kts 137°
2026-05-07 20:06 44.67877 24.90683 12900 ft 294 kts 136°
2026-05-07 20:07 44.66480 24.92801 12567 ft 297 kts 136°
2026-05-07 20:07 44.65081 24.94933 12292 ft 293 kts 136°
2026-05-07 20:07 44.63742 24.96987 12088 ft 280 kts 136°
2026-05-07 20:07 44.62450 24.98994 11865 ft 274 kts 136°
2026-05-07 20:08 44.61197 25.00969 11628 ft 268 kts 133°
2026-05-07 20:08 44.60427 25.03356 11346 ft 276 kts 102°
2026-05-07 20:08 44.60572 25.06037 11078 ft 275 kts 81°
2026-05-07 20:08 44.60913 25.08652 10914 ft 269 kts 85°
2026-05-07 20:09 44.61061 25.11231 10801 ft 261 kts 92°
2026-05-07 20:09 44.60966 25.13747 10689 ft 257 kts 100°
2026-05-07 20:09 44.60732 25.16253 10577 ft 260 kts 102°
2026-05-07 20:10 44.60194 25.21319 10352 ft 264 kts 102°
2026-05-07 20:10 44.59939 25.23876 10240 ft 265 kts 101°
2026-05-07 20:10 44.59701 25.26450 10129 ft 266 kts 101°
2026-05-07 20:10 44.59470 25.29027 10019 ft 267 kts 101°
2026-05-07 20:11 44.59236 25.31615 9897 ft 267 kts 100°
2026-05-07 20:11 44.59006 25.34199 9785 ft 267 kts 100°
2026-05-07 20:11 44.58772 25.36781 9651 ft 267 kts 101°
2026-05-07 20:11 44.58537 25.39357 9525 ft 266 kts 101°
2026-05-07 20:12 44.58300 25.41933 9400 ft 266 kts 101°
2026-05-07 20:12 44.58067 25.44508 9279 ft 266 kts 101°
2026-05-07 20:12 44.57832 25.47076 9158 ft 266 kts 100°
2026-05-07 20:12 44.57594 25.49651 9035 ft 266 kts 101°
2026-05-07 20:13 44.57361 25.52184 8925 ft 265 kts 101°
2026-05-07 20:13 44.57130 25.54683 8803 ft 265 kts 100°
2026-05-07 20:13 44.56894 25.57248 8684 ft 265 kts 101°
2026-05-07 20:13 44.56660 25.59809 8587 ft 264 kts 100°
2026-05-07 20:14 44.56429 25.62382 8319 ft 270 kts 100°
2026-05-07 20:14 44.56186 25.65022 8042 ft 275 kts 100°
2026-05-07 20:14 44.55939 25.67664 7709 ft 271 kts 100°
2026-05-07 20:14 44.55682 25.70247 7356 ft 264 kts 100°
2026-05-07 20:15 44.55425 25.72758 7009 ft 258 kts 100°
2026-05-07 20:15 44.55169 25.75226 6620 ft 252 kts 100°
2026-05-07 20:15 44.54917 25.77624 6146 ft 248 kts 100°
2026-05-07 20:15 44.54658 25.80036 5474 ft 252 kts 100°
2026-05-07 20:16 44.54388 25.82492 4777 ft 257 kts 100°
2026-05-07 20:16 44.54101 25.85039 4086 ft 275 kts 99°
2026-05-07 20:16 44.53803 25.87596 3690 ft 257 kts 100°
2026-05-07 20:16 44.53513 25.90025 3284 ft 245 kts 99°
2026-05-07 20:17 44.53626 25.92318 2949 ft 232 kts 72°
2026-05-07 20:17 44.54235 25.94419 2289 ft 234 kts 66°
2026-05-07 20:17 44.54872 25.96472 1968 ft 222 kts 63°
2026-05-07 20:17 44.55497 25.98368 1771 ft 206 kts 65°
2026-05-07 20:18 44.55560 25.98571 1734 ft 205 kts 66°
2026-05-07 20:18 44.55734 25.99213 1625 ft 203 kts 72°
2026-05-07 20:18 44.55963 26.01144 1268 ft 198 kts 84°
2026-05-07 20:18 44.56110 26.03002 1156 ft 178 kts 84°
2026-05-07 20:19 44.56240 26.04641 947 ft 168 kts 83°
2026-05-07 20:19 44.56380 26.06309 1131 ft 171 kts 83°
2026-05-07 20:19 44.56513 26.07956 1631 ft 166 kts 83°
2026-05-07 20:19 44.56653 26.09536 2122 ft 165 kts 82°
2026-05-07 20:20 44.56827 26.11205 2336 ft 183 kts 81°
2026-05-07 20:20 44.57028 26.13065 2442 ft 203 kts 82°
2026-05-07 20:20 44.57228 26.15113 2507 ft 221 kts 82°
2026-05-07 20:20 44.57443 26.17317 2525 ft 235 kts 82°
2026-05-07 20:21 44.57669 26.19635 2597 ft 242 kts 82°
2026-05-07 20:21 44.57899 26.21964 2826 ft 241 kts 82°
2026-05-07 20:21 44.58135 26.24314 2941 ft 246 kts 82°
2026-05-07 20:21 44.58374 26.26711 2995 ft 251 kts 82°
2026-05-07 20:22 44.58617 26.29158 3023 ft 256 kts 82°
2026-05-07 20:22 44.58853 26.31624 3036 ft 251 kts 84°
2026-05-07 20:22 44.58566 26.33958 3033 ft 244 kts 118°
2026-05-07 20:22 44.57415 26.35615 3043 ft 237 kts 154°
2026-05-07 20:23 44.55930 26.36198 3053 ft 232 kts 172°
2026-05-07 20:23 44.54332 26.36542 3050 ft 233 kts 174°
2026-05-07 20:23 44.52713 26.36804 3049 ft 227 kts 181°
2026-05-07 20:23 44.51272 26.36160 3050 ft 222 kts 218°
2026-05-07 20:24 44.50429 26.34402 3052 ft 221 kts 255°
2026-05-07 20:24 44.50198 26.32279 3049 ft 221 kts 263°
2026-05-07 20:24 44.50046 26.30127 3052 ft 223 kts 265°
2026-05-07 20:24 44.49927 26.27952 3051 ft 224 kts 265°
2026-05-07 20:25 44.49826 26.25764 3029 ft 226 kts 266°
2026-05-07 20:25 44.49733 26.23563 3006 ft 227 kts 266°
2026-05-07 20:25 44.49643 26.21355 3005 ft 227 kts 266°
2026-05-07 20:25 44.49557 26.19153 2997 ft 227 kts 266°
2026-05-07 20:26 44.49466 26.16949 2991 ft 226 kts 266°
2026-05-07 20:26 44.49367 26.14749 2994 ft 226 kts 266°
2026-05-07 20:26 44.49265 26.12551 2995 ft 227 kts 266°
2026-05-07 20:26 44.49161 26.10346 2997 ft 227 kts 266°
2026-05-07 20:27 44.49057 26.08143 2998 ft 227 kts 266°
2026-05-07 20:27 44.48952 26.05933 2997 ft 227 kts 266°
2026-05-07 20:27 44.48846 26.03726 2995 ft 227 kts 266°
2026-05-07 20:27 44.48742 26.01519 3002 ft 227 kts 266°
2026-05-07 20:28 44.48641 25.99320 2996 ft 226 kts 266°
2026-05-07 20:28 44.48540 25.97124 2997 ft 226 kts 266°
2026-05-07 20:28 44.48483 25.94937 2997 ft 224 kts 272°
2026-05-07 20:28 44.48594 25.92812 3000 ft 225 kts 275°
2026-05-07 20:29 44.48750 25.90628 2998 ft 226 kts 276°
2026-05-07 20:29 44.48923 25.88445 2997 ft 226 kts 276°
2026-05-07 20:29 44.49106 25.86241 2895 ft 230 kts 276°
2026-05-07 20:29 44.49296 25.84008 2795 ft 232 kts 276°
2026-05-07 20:30 44.49529 25.81816 2696 ft 228 kts 285°
2026-05-07 20:30 44.50449 25.80049 2595 ft 230 kts 323°
2026-05-07 20:30 44.51956 25.79382 2548 ft 228 kts 352°
2026-05-07 20:30 44.53519 25.79392 2517 ft 225 kts 11°
2026-05-07 20:31 44.54829 25.80565 2509 ft 229 kts 49°
2026-05-07 20:31 44.55419 25.82603 2507 ft 225 kts 81°
2026-05-07 20:31 44.55366 25.84735 2509 ft 217 kts 107°
2026-05-07 20:31 44.54951 25.86753 2503 ft 215 kts 103°
2026-05-07 20:32 44.54794 25.88811 2658 ft 206 kts 88°
2026-05-07 20:32 44.54950 25.90799 2702 ft 206 kts 80°
2026-05-07 20:32 44.55184 25.92775 2656 ft 207 kts 80°
2026-05-07 20:32 44.55405 25.94782 2427 ft 209 kts 81°
2026-05-07 20:33 44.55613 25.96771 2141 ft 205 kts 84°
2026-05-07 20:33 44.55737 25.98729 1997 ft 193 kts 84°
2026-05-07 20:33 44.55900 26.00492 1821 ft 178 kts 82°
2026-05-07 20:33 44.56034 26.02199 1490 ft 175 kts 81°
2026-05-07 20:34 44.56178 26.03963 1150 ft 186 kts 83°
2026-05-07 20:34 44.56322 26.05676 1406 ft 151 kts 83°
2026-05-07 20:34 44.56364 26.07105 1598 ft 159 kts 87°
2026-05-07 20:34 44.56432 26.08660 2069 ft 164 kts 88°